EW4993 Weather Reports


time (UTC)temp
C
wind
direction
speed
KPH
gust
KPH
rain 1hr
cm
rain 24hr
cm
rain mn
cm
humidity
%
barometer
mb
20260503003036 21 96 0.0 0.0 0.00 0.03 0.00 61 994.3
20260503001514 21 96 1.6 6.4 0.00 0.03 0.00 58 994.3
20260503000011 21 97 0.0 0.0 0.00 0.03 0.00 55 994.1
20260502234509 22 96 3.2 9.7 0.00 0.05 0.00 51 994.1
20260502233006 22 78 3.2 9.7 0.00 0.05 0.00 51 994.1
20260502231505 22 105 3.2 9.7 0.00 0.05 0.00 49 994.0
20260502230002 22 65 8.0 16.1 0.00 0.05 0.00 49 994.0
20260502224501 22 70 3.2 9.7 0.00 0.28 0.05 48 994.0
20260502223003 22 73 8.0 14.5 0.00 0.28 0.05 48 994.1
20260502221542 22 81 3.2 9.7 0.00 0.28 0.05 46 994.1
20260502220042 22 48 9.7 17.7 0.00 0.28 0.05 45 994.2
20260502214523 22 57 8.0 14.5 0.00 0.33 0.05 46 994.3
20260502213035 22 47 8.0 20.9 0.00 0.33 0.05 45 994.5
20260502211504 22 56 9.7 19.3 0.00 0.33 0.05 44 994.7
20260502210004 22 39 9.7 20.9 0.00 0.33 0.05 47 995.0
20260502204605 22 78 11.3 22.5 0.00 0.38 0.05 48 995.1
20260502203058 22 55 11.3 19.3 0.00 0.38 0.05 50 995.3
20260502201543 22 69 9.7 24.1 0.00 0.38 0.05 51 995.4
20260502200024 21 80 8.0 17.7 0.00 0.38 0.05 50 995.4
20260502194523 21 40 9.7 24.1 0.00 0.43 0.05 50 995.6
20260502193003 21 63 9.7 22.5 0.00 0.43 0.05 53 995.6
20260502191502 21 38 11.3 19.3 0.00 0.43 0.05 54 995.6
20260502190047 21 69 9.7 17.7 0.00 0.43 0.05 56 995.7
20260502184553 21 80 9.7 22.5 0.00 0.91 0.05 52 995.8
20260502183041 21 65 9.7 17.7 0.00 0.91 0.05 59 996.0
20260502181543 20 32 6.4 19.3 0.00 0.91 0.05 57 996.4
20260502163029 18 55 11.3 19.3 0.00 1.04 0.05 63 997.4
20260502161530 18 44 4.8 16.1 0.00 1.04 0.05 63 997.6
20260502151612 16 42 3.2 14.5 0.03 1.24 0.05 71 997.4
20260502123037 9 43 0.0 0.0 0.00 1.70 0.03 80 995.8
20260502121536 8 43 0.0 0.0 0.00 1.70 0.03 80 995.6
20260502114530 8 43 0.0 0.0 0.00 1.98 0.03 81 994.9
20260502113010 8 43 0.0 0.0 0.00 1.98 0.03 81 994.9
20260502111507 8 43 0.0 0.0 0.00 1.98 0.03 81 994.6
20260502110048 9 43 0.0 0.0 0.00 1.98 0.03 81 994.2
20260502104544 9 43 0.0 0.0 0.00 2.13 0.03 81 993.8
20260502103026 9 44 3.2 8.0 0.00 2.13 0.03 81 993.6
20260502101524 9 43 1.6 6.4 0.00 2.13 0.03 81 993.6
20260502091516 10 34 3.2 8.0 0.00 2.24 0.03 82 993.5
20260502071526 10 32 3.2 8.0 0.00 2.41 0.03 82 993.2
20260502070007 10 39 3.2 8.0 0.00 2.41 0.03 83 993.3
20260502064506 10 39 4.8 9.7 0.00 2.44 0.03 83 993.1
20260502063047 10 42 4.8 8.0 0.00 2.44 0.03 83 993.1
20260502061545 11 44 4.8 8.0 0.00 2.44 0.03 83 993.0
20260502060036 11 45 3.2 8.0 0.00 2.44 0.03 83 993.1
20260502054624 11 47 4.8 9.7 0.00 2.46 0.03 83 993.3
20260502053005 11 42 4.8 8.0 0.00 2.46 0.03 84 993.1
20260502051505 12 42 1.6 11.3 0.00 2.46 0.03 84 993.0
20260502050048 12 43 8.0 14.5 0.00 2.46 0.03 84 992.8
20260502044546 12 45 6.4 11.3 0.00 2.51 0.03 84 992.9
20260502043028 12 43 6.4 14.5 0.00 2.51 0.03 84 992.7
20260502041543 12 40 11.3 17.7 0.00 2.51 0.03 83 992.7
20260502040009 12 36 6.4 12.9 0.00 2.51 0.03 81 992.9
20260502034506 12 37 4.8 8.0 0.00 2.79 0.03 81 992.8
20260502033048 12 40 3.2 8.0 0.00 2.79 0.03 81 992.8
20260502031547 12 41 3.2 12.9 0.00 2.79 0.03 81 992.8
20260502030036 12 38 4.8 14.5 0.00 2.79 0.03 81 992.6
20260502024526 12 34 4.8 12.9 0.00 2.79 0.03 81 992.5
20260502023026 12 39 6.4 12.9 0.00 2.79 0.03 82 992.2
20260502021509 12 47 6.4 11.3 0.00 2.79 0.03 82 991.8
20260502020006 12 59 6.4 14.5 0.00 2.79 0.03 82 991.5
20260502014505 12 38 8.0 17.7 0.00 2.79 0.03 81 991.4
20260502013002 12 59 9.7 16.1 0.00 2.79 0.03 81 991.1
20260502011608 12 60 9.7 17.7 0.00 2.79 0.03 80 990.9
20260502010100 12 37 8.0 17.7 0.00 2.79 0.03 80 990.7
20260502004556 12 74 11.3 25.7 0.00 2.79 0.03 79 990.5